#timestamp,LO_Frequency,Hit,StdDev 
1645261215.4,286046989.5,N
1645261235.3,286046986.7,N
1645261255.1,286046981.6,N
1645261256.0,286046981.6,N
1645261275.8,286046980.3,N
1645261295.7,286046982.0,N
1645261315.5,286046972.8,N
1645261335.3,286046974.4,N
1645261355.2,286046977.2,N
1645261375.0,286046977.0,N
1645261375.9,286046977.0,N
1645261395.8,286046970.9,Y
1645261415.6,286046979.0,P
1645261435.4,286046982.9,P
1645261455.3,286046985.7,P
1645261475.1,286046991.0,N
1645261495.8,286046990.2,N
1645261515.7,286046991.7,N
1645261535.5,286047001.0,N
1645261555.4,286047002.2,N
1645261575.2,286047005.6,N
1645261595.0,286046998.5,N
1645261595.9,286046998.5,N
1645261615.8,286047001.8,N
1645261635.6,286047002.9,N
1645261655.4,286047001.7,N
1645261675.3,286046998.2,N
1645261695.1,286046994.9,N
1645261715.9,286046994.4,N
1645261735.7,286046997.7,N
1645261755.5,286046997.0,N
1645261775.4,286046999.4,N
1645261795.2,286047000.0,N
1645261815.0,286046993.3,N
1645261815.9,286046993.3,N
1645261835.8,286046986.3,N
1645261855.6,286047002.2,N
1645261875.5,286046999.4,N
1645261895.3,286046999.9,N
1645261915.1,286047007.3,N
1645261935.9,286047007.1,N
1645261955.7,286047006.8,N
1645261975.5,286047013.8,N
1645261995.4,286047013.7,N
1645262015.2,286047007.4,N
1645262035.1,286047006.5,N
1645262036.0,286047006.5,N
1645262055.8,286047006.1,N
1645262075.6,286046998.6,N
1645262095.5,286046998.4,N
1645262115.3,286047005.8,N
1645262135.1,286047000.5,N
1645262155.9,286046997.4,N
1645262175.7,286046994.3,N
1645262195.6,286046993.0,N
1645262215.4,286046989.5,N
1645262235.2,286046991.7,N
1645262255.1,286046992.6,N
1645262256.0,286046992.6,N
1645262275.8,286046988.4,N
1645262295.7,286046984.9,N
1645262315.5,286046985.1,N
1645262335.3,286046987.7,N
1645262355.2,286046988.5,N
1645262375.9,286046991.5,N
1645262395.7,286046994.6,N
1645262415.6,286046988.5,N
1645262435.4,286046987.8,N
1645262455.2,286046993.0,N
1645262475.1,286046983.9,N
1645262476.0,286046983.9,N
1645262495.8,286046987.7,N
1645262515.7,286046986.1,N
1645262535.5,286046989.3,N
1645262555.3,286046995.1,N
1645262575.2,286046993.0,N
1645262595.0,286046988.6,N
1645262595.9,286046988.6,N
1645262615.8,286046994.4,N
1645262635.6,286046997.5,N
1645262655.4,286046994.1,N
1645262675.3,286046990.1,N
1645262695.1,286046993.4,N
1645262715.8,286046991.9,N
1645262735.7,286046995.8,N
1645262755.5,286046999.8,N
1645262775.4,286047007.6,N
1645262795.2,286047006.1,N
1645262815.0,286047006.5,N
1645262815.9,286047006.5,N
1645262835.8,286047008.6,N
1645262855.6,286047012.8,N
1645262875.4,286047006.2,N
1645262895.3,286047008.2,N
1645262915.1,286047007.9,N
1645262935.9,286047008.8,N
1645262955.7,286047009.9,N
1645262975.5,286047007.0,N
1645262995.4,286047003.8,N
1645263015.2,286047006.8,N
1645263035.1,286047007.5,N
1645263036.0,286047007.5,N
1645263055.8,286047005.1,N
1645263075.6,286047002.8,N
1645263095.5,286047001.2,N
1645263115.3,286047002.7,N
1645263135.1,286047000.0,N
1645263155.9,286047000.6,N
1645263175.7,286046999.4,N
1645263195.6,286046997.5,N
1645263215.4,286046998.9,N
1645263235.2,286047001.3,N
1645263255.1,286047008.2,N
1645263256.0,286047008.2,N
1645263275.8,286047010.9,N
1645263295.7,286047012.4,Y
1645263315.5,286046999.8,P
1645263335.3,286047002.5,N
1645263355.2,286047002.9,N
1645263375.0,286047001.7,N
1645263375.9,286047001.7,N
1645263395.8,286047005.5,Y
1645263415.6,286047003.7,P
1645263435.4,286047007.3,P
1645263455.3,286047012.3,P
1645263475.1,286047012.3,Y
1645263495.8,286047003.5,P
1645263515.7,286047000.5,N
1645263535.5,286046998.8,N
1645263555.4,286047000.7,N
1645263575.2,286046994.8,N
1645263595.0,286046993.5,N
1645263595.9,286046993.5,N
1645263615.8,286046996.2,N
1645263635.6,286046996.6,N
1645263655.4,286046998.1,N
1645263675.3,286047002.8,N
1645263695.1,286047005.8,N
1645263715.9,286047006.7,N
1645263735.7,286047009.1,N
1645263755.5,286047011.8,N
1645263775.4,286047008.7,N
1645263795.2,286047002.2,N
1645263815.0,286047002.7,N
1645263815.9,286047002.7,N
1645263835.8,286047002.8,N
1645263855.6,286047007.6,N
1645263875.5,286047006.2,N
1645263895.3,286047004.8,N
1645263915.1,286047003.3,N
1645263935.9,286046998.1,N
1645263955.7,286047001.8,N
1645263975.5,286047008.7,N
1645263995.4,286047009.0,N
1645264015.2,286047006.1,N
1645264035.1,286047007.8,N
1645264036.0,286047007.8,N
1645264055.8,286047012.3,N
1645264075.6,286047010.1,N
1645264095.5,286047011.1,N
1645264115.3,286047008.6,N
1645264135.1,286047006.2,N
1645264155.9,286047010.3,N
1645264175.7,286047012.8,N
1645264195.6,286047016.7,Y
1645264215.4,286047006.2,P
1645264235.2,286047004.5,P
1645264255.1,286047003.6,P
1645264256.0,286047003.6,Y
1645264275.8,286046994.4,P
1645264295.7,286046989.7,N
1645264315.5,286046988.4,N
1645264335.3,286046984.0,N
1645264355.2,286046981.3,N
1645264375.9,286046979.1,N
1645264395.7,286046982.7,N
1645264415.6,286046986.8,N
1645264435.4,286046985.2,N
1645264455.3,286046976.4,Y
1645264475.1,286046989.0,P
1645264476.0,286046989.0,P
1645264495.8,286046993.2,P
1645264515.7,286046994.8,N
1645264535.5,286046999.3,N
1645264555.3,286047004.0,N
1645264575.2,286047002.3,N
1645264595.0,286047001.4,N
1645264595.9,286047001.4,N
1645264615.8,286046998.2,N
1645264635.6,286047003.9,N
1645264655.4,286047005.5,N
1645264675.3,286047006.6,N
1645264695.1,286047010.9,N
1645264715.8,286047012.1,N
1645264735.7,286047011.8,N
1645264755.5,286047010.1,N
1645264775.4,286047003.4,N
1645264795.2,286046999.9,N
